www.pogodaiklimat.ru
ПОГОДА в Александрии
Время
и дата
14:53 25.10
15:53 25.10
16:13 25.10
16:48 25.10
16:53 25.10
17:53 25.10
18:53 25.10
19:53 25.10
20:53 25.10
21:53 25.10
22:53 25.10
23:53 25.10
00:53 26.10
01:53 26.10
02:53 26.10
03:53 26.10
04:53 26.10
05:53 26.10
06:53 26.10
07:53 26.10
08:49 26.10
08:53 26.10
09:53 26.10
10:53 26.10
11:53 26.10
12:53 26.10
13:53 26.10
14:53 26.10
15:53 26.10
16:53 26.10
17:53 26.10
18:53 26.10
19:53 26.10
20:53 26.10
21:53 26.10
22:53 26.10
23:53 26.10
00:53 27.10
01:53 27.10
02:53 27.10
03:53 27.10
04:53 27.10
05:53 27.10
06:53 27.10
07:53 27.10
08:53 27.10
09:53 27.10
10:53 27.10
Ветер
(напр.,м/с)
Видим. Явления Облачность Т
(С)
Тd
(С)
f
(%)
Тe
(С)
Тes
(С)
Комфортность P
(гПа)
Po
(гПа)
Тmin
(С)
Tmax
(С)
R
(мм)
R24
(мм)
S
(см)
СЗ 3 16 км 5/5 480 м -3.9 -7.8 74 -11 -10 1029.8 975.5
СЗ 2 16 км 10/10 660 м -3.9 -7.8 74 -10 -10 1029.5 975.2
З 3 16 км 10/10 720 м -3.9 -8.3 71 -11 -11 975.2
СЗ 3 16 км 10/10 660 м -4.0 -8.0 74 -11 -11 975.2
СЗ 2 16 км 10/10 660 м -4.4 -8.3 74 -11 -11 1029.8 975.2
З 2 16 км 8/8 1440 м -5.6 -8.9 78 -12 -12 1029.7 975.2 -5.6 -3.3
З 2 16 км 10/10 1500 м -5.6 -8.3 81 -12 -12 1030.4 975.8
З 2 16 км 10/10 1500 м -5.6 -8.3 81 -12 -12 1030.4 975.8
З 2 16 км 10/10 1500 м -6.1 -8.3 84 -13 -13 1030.9 976.5
СЗ 2 16 км 8/8 1800 м -6.7 -8.9 84 -14 -14 1031.4 976.8
З 2 16 км 5/5 1800 м -7.2 -9.4 84 -14 -14 1031.2 976.5
З 2 16 км 10/10 1650 м -6.7 -9.4 81 -14 -14 1031.2 976.8 -7.2 -5.6
З 1 16 км 10/10 1650 м -7.2 -10.0 80 -13 -13 1030.9 976.5
З 2 16 км 10/10 1500 м -7.2 -9.4 84 -15 -15 1030.7 976.2
З 1 16 км 10/10 1500 м -7.8 -9.4 88 -14 -14 1030.6 976.2
З 1 16 км 10/10 1470 м -7.2 -9.4 84 -12 -12 1030.7 976.2
З 2 16 км 10/10 1410 м -7.8 -9.4 88 -15 -15 1030.8 976.2
З 1 16 км 10/10 1470 м -8.9 -10.6 87 -15 -15 1031.2 976.5 -9.4 -7.2 0.3
З 1 16 км 10/10 1290 м -7.8 -9.4 88 -14 -14 1031.5 976.8
З 1 16 км 10/10 1320 м -7.8 -8.9 92 -12 -12 1031.8 977.1
З 1 16 км 8/8 210 м -8.0 -9.0 92 -14 -14 977.4
З 1 16 км 8/8 210 м -7.2 -8.9 88 -13 -13 1032.1 977.4
З 1 16 км ясно -6.1 -8.9 81 -12 -10 1031.7 977.1
З 2 16 км ясно -5.6 -8.3 81 -12 -10 1031.7 977.1
З 1 16 км ясно -4.4 -8.9 71 -10 -6 1031.1 976.5 -8.9 -4.4
СЗ 2 16 км ясно -3.9 -8.9 68 -10 -6 1030.5 975.8
З 2 16 км ясно -4.4 -10.0 65 -10 -7 1030.1 975.5
З 2 16 км ясно -4.4 -12.2 54 -10 -7 1029.6 975.2
ЮЗ 1 16 км ясно -5.0 -11.7 59 -10 -8 1029.7 975.2
ЮЗ 2 16 км ясно -6.1 -11.1 68 -12 -12 1030.1 975.5
З 1 16 км ясно -7.8 -11.1 77 -13 -13 1030.2 975.2 -8.3 -3.9
ЮЗ 1 16 км ясно -8.9 -11.1 84 -13 -13 1030.0 975.2
ЮЗ 2 16 км ясно -9.4 -12.2 80 -16 -16 1029.6 974.9
ЮЗ 2 16 км ясно -10.0 -12.8 80 -17 -17 1029.0 974.2
ЮЗ 1 16 км ясно -10.0 -12.2 84 -15 -15 1028.9 974.2
ЮЗ 2 16 км ясно -11.1 -12.8 87 -18 -18 1028.8 974.2
ЮЗ 2 16 км ясно -10.6 -12.2 88 -18 -18 1027.7 973.3 -11.7 -7.8
ЮЗ 2 16 км ясно -11.1 -12.8 87 -19 -19 1027.3 972.6
ЮЗ 2 16 км ясно -11.1 -12.8 87 -19 -19 1027.5 972.9
ЮЗ 3 16 км ясно -10.0 -12.2 84 -19 -19 1026.2 971.7
ЮЗ 3 16 км ясно -9.4 -12.8 76 -18 -18 1025.5 971.0
ЮЗ 3 16 км ясно -9.4 -12.8 76 -18 -18 1025.0 970.4
Ю 3 16 км ясно -9.4 -12.8 76 -18 -18 1024.2 969.7 -11.7 -8.9
Ю 4 16 км ясно -10.0 -12.8 80 -20 -20 1023.6 969.1
ЮЗ 3
{5}
16 км ясно -9.4 -12.8 76 -18 -18 1022.8 968.1
ЮЗ 3 16 км ясно -9.4 -12.8 76 -18 -18 1022.8 968.1
ЮЗ 3 16 км ясно -7.8 -11.7 74 -17 -16 1021.7 967.2
ЮЗ 3
{4}
16 км ясно -6.1 -11.7 65 -14 -13 1021.4 967.2
Местоположение метеостанции Chandler Field Airport: широта 45.8686 долгота -95.3942 высота над уровнем моря 434 м.
В архиве по умолчанию представлена погода в Александрии за последние 1-2 суток. Обновление информации о фактической погоде в базе происходит ежечасно! Архивные данные за месяц целиком и за предыдущие месяцы Вы можете получить, выбрав интересующий диапазон дат из раскрывающегося списка и нажав кнопку "Ввод!".
Внимание! Архив погоды МЕТАР в базе сайта по станциям, не включенным в климатический монитор, хранится не более 60 дней. Нет смысла пытаться выбрать более раннюю дату.
*Определитесь, кто Вы:
Внимание! Время в таблицах - местное (без учета летнего времени). Для получения всемирного времени необходимо вычесть поправку, которая равна -6 ч.
Смотрите также архив погоды в соседних городах и на ближайших метеорологических станциях:
Партнеры нашего сайта:      
Пояснения к столбцам:
  • Ветер - указаны скорость ветра в м/с - средняя за 10 мин, порывы в срок и между сроками (в фигурных скобках) и направление, откуда дует ветер: С - северный,
  • СВ - северо-восточный, В - восточный, ЮВ - юго-восточный, Ю - южный, ЮЗ - юго-западный, З - западный, СЗ - северо-западный.
  • Видимость - горизонтальная дальность видимости в метрах или километрах. При видимости от 1 до 10 км при отсутствии осадков обычно наблюдается дымка, при ухудшении видимости до 1 км и менее - туман. В сухую погоду видимость может ухудшаться дымом, пылью или мглою.
  • Явления - указаны атмосферные явления, наблюдавшиеся в срок или в последний час перед сроком; фигурными скобками обозначены явления, наблюдавшиеся между сроками (за 1-3 часа до срока); квадратными скобками обозначены град или гололедные отложения с указанием их диаметра в мм.
  • Облачность - указаны через наклонную черту общая и нижняя облачность в баллах и высота нижней границы облаков в метрах; квадратными скобками обозначены формы облаков: Ci - перистые, Cs - перисто-слоистые, Cc - перисто-кучевые, Ac - высококучевые, As - высокослоистые, Sc - слоисто-кучевые, Ns - слоисто-дождевые, Cu - кучевые, Cb - кучево-дождевые. Подробнее классификацию облаков см. в Атласе облаков (PDF).
  • T - Температура воздуха - температура, измеренная на высоте 2 м над землей.
  • Td - Температура точки росы - температура, при понижении до которой содержащийся в воздухе водяной пар достигнет насыщения.
  • f - Относительная влажность воздуха - влажноcть воздуха, измеренная на высоте 2 м над землей.
  • Te - Эффективная температура - температура, которую ощущает одетый по сезону человек в тени. Характеристика душности погоды. При расчете учитывается влияние влажности воздуха и скорости ветра на теплоощущения человека.
  • Tes - Эффективная температура на солнце - температура, которую ощущает человек, с поправкой на солнечный нагрев. Характеристика знойности погоды. Зависит от высоты солнца над горизонтом, облачности и скорости ветра. Ночью, в пасмурную погоду, а также при ветре 12 м/с и более поправка равна нулю.
  • P - Атмосферное давление - приведенное к уровню моря атмосферное давление.
  • Po - Атмосферное давление - измеренное на уровне метеостанции атмосферное давление.
  • Tmin - Минимальная температура - минимум температуры воздуха на высоте 2 м над землей.
  • Tmax - Максимальная температура - максимум температуры воздуха на высоте 2 м над землей.
  • R - Количество осадков - Количество выпавших осадков за период времени, мм. При наведении курсора мыши на число - период времени, за который выпало указанное количество осадков.
  • R24 - Количество осадков - Количество выпавших осадков за 24 часа, мм.
  • S - Снежный покров - Высота снежного покрова, см. При наведении курсора мыши на число - состояние снежного покрова и степень покрытия местности в баллах.